COSMOS 2251 DEB, 40808

Orbit data source: Space-Track

COSMOS 2251 DEB, 40808 is space debris in LEO originally from a launch on Wed, 16 Jun 1993 UTC launched from the Plesetsk Missile And Space Complex (PKMTR). The debris from Iridium 33, an American commercial communications satellite, has been tracked extensively since its accidental collision with the defunct Russian satellite Cosmos 2251 in 2009. This event, occurring at high speed in low Earth orbit (LEO), generated thousands of pieces of space debris, significantly increasing the risk of further collisions. The Iridium 33 debris cloud has impacted space traffic management and orbital debris mitigation strategies, making it a subject of ongoing study in space situational awareness.

Loading next visibility...
COSMOS 2251 DEB details
Identifier
40808, 1993-036BWM
Orbit
LEO
Last TLE update2 days ago
Origin
Flag of CISKVR (CIS)
ManufacturerUnknown
MissionSpacecraft
Bus & MotorUnknown
MassUnknown
Launch date (UTC)
1993-06-16 (32 years ago)
Launch vehicleUnknown
Launch site
Plesetsk Missile And Space Complex (PKMTR)
Object type
Payload
Rocket body
Debris
Shape & HBRUnknown
Radar Cross SectionSmall (<0.1 m²)

Expand to show TLE details & history

TLE from 2 days ago
0 COSMOS 2251 DEB
1 40808U 93036BWM 24360.06589950  .00017962  00000-0  37597-2 0  9996
2 40808  74.0459 102.3493 0011632 247.5494 285.8134 14.59702055584580
Epoch: 2024-12-25T01:34Z
Definitive object data (Epoch: 2024-12-25T01:34:53.716Z)
Latitude6.43204°
Longitude162.72357°
Altitude693.938 km
Speed7.511 km/s
True Right ascension18h 42m 02s
True Declination6° 23' 37"
Sunlit
Object was in daylight at TLE epoch
Visualization TLE readout
Latitude57.46093°
Longitude8.06338°
Altitude711.477 km
Speed7.501 km/s
Apparent Right ascension04h 50m 33s
Apparent Declination17° 06' 59"
Sunlit
Object is in full shadow
Visualization observer readout
Local Sidereal Time14:15:53
Azimuth319.719° NNW
Elevation-22.55°
Doppler factor1
Orbital elements
Apogee altitude699.957 km
Perigee altitude683.51 km
Semi-major axis7,069.87 km
Eccentricity0.0011632
Inclination74.0459°
RAAN102.3493°
Arg. of periapsis247.5494°
True anomaly285.6851°
Mean anomaly285.8134°
Eccentric anomaly285.74926°
Mean motion3.65112 °/min
BSTAR0.0037597
Orbital period98.6 mins
Loading maneuver chart data...

COSMOS 2251 DEB Visibility forecast

Observer location: undefined°, undefined

Span
Click to sort rows by Start time (UTC) header in descending order
Start Az.
Max El. time (UTC)
Max El. Az.
Max El.
End time (UTC)
End Az.
4 mins2024-12-26 16:49:58.398Z32.425° NE2024-12-26 16:51:58.398Z59.167° ENE13.967°2024-12-26 16:53:58.398Z84.952° E
8 mins2024-12-26 18:28:58.398Z333.002° NNW2024-12-26 18:32:58.398Z233.859° WSW41.977°2024-12-26 18:36:58.398Z173.974° S
7 mins2024-12-27 07:11:58.398Z150.728° SSE2024-12-27 07:14:58.398Z99.144° ESE26.354°2024-12-27 07:18:58.398Z41.581° NE
6 mins2024-12-27 08:52:58.398Z254.43° W2024-12-27 08:54:58.398Z289.673° WNW25.205°2024-12-27 08:58:58.398Z353.07° N
|